Location: Gro� Glienicke
(52.4675°N, 13.1079°E)
Time: 02:43:57
(UTC+00:00)

Cosmos 1812 - Pass Details

Date: 06 July 2020
Orbit: 516 x 522 km, 82.5° (Epoch: 04 August)

Event Time Altitude Azimuth Distance (km) Brightness Sun altitude
Rises 23:42:57 0° 349° (N) 2,663 7.8 -14.7°
Reaches altitude 10° 23:45:06 10° 350° (N) 1,768 6.6 -14.6°
Maximum altitude 23:48:59 84° 79° (ENE) 530 2.7 -14.6°
Enters shadow 23:51:11 25° 167° (SSE) 1,089 3.8 -14.5°
